Regional Weather Roundup
Issued by NWS

Home | Current Version | Previous Version | Graphics & Text | Print | Product List | Glossary On
Versions: 1 2 3 4 5 6 7 8 9 10 11 12 13 14 15 16 17 18 19 20 21 22 23 24 25 26 27 28
000
ASUS45 KSLC 160110
RWRUT

UTAH REGIONAL WEATHER ROUNDUP
NATIONAL WEATHER SERVICE SALT LAKE CITY UT
600 PM MST SUN JAN 15 2017

UTZ001>011-023>025-160200-

NORTHERN UTAH

CITY           SKY/WX    TMP DP  RH WIND       PRES   REMARKS
BRIGHAM CITY     N/A     22  17  81 N3        30.16S
HILL AFB       CLOUDY    25  19  78 NW7       30.12R WCI  17
LOGAN          MOCLDY    12   9  87 NW3       30.17R FOG
OGDEN          CLOUDY    23  19  85 N3        30.13S
SALT LAKE CITY CLOUDY    30  24  78 NW6       30.14R WCI  24
TOOELE VALLEY  CLOUDY    30  27  86 W5        30.14F WCI  25
WENDOVER       PTCLDY    28  23  80 E5        30.14R WCI  23
HEBER CITY     MOCLDY     3   0  85 E3        30.08R
WEST JORDAN    CLOUDY    28  28 100 NW8       30.13R WCI  20

$$

UTZ011>015-024>027-160200-

CENTRAL/NORTHEAST UTAH

CITY           SKY/WX    TMP DP  RH WIND       PRES   REMARKS
PROVO AIRPORT  CLOUDY    28  25  86 W5        30.14R WCI  23
MOAB/CANYONLAN CLOUDY    38  35  89 W3        29.93S
DELTA          CLOUDY    30  25  80 CALM      30.11S
PRICE          PTCLDY    31  29  92 NE3       29.92S
RICHFIELD      CLOUDY    30  30 100 NE7       30.10R WCI  23
ROOSEVELT      CLOUDY    30  25  80 CALM      30.04R
VERNAL         CLOUDY    29  25  85 SE3       30.02R

$$

UTZ013>016-019>022-027-160200-

SOUTHERN UTAH

CITY           SKY/WX    TMP DP  RH WIND       PRES   REMARKS
BRYCE CANYON   CLOUDY    28  23  81 NW7       29.97R WCI  21
CEDAR CITY     CLOUDY    29  24  82 N8        30.05R WCI  21
MILFORD        CLOUDY    31  24  75 NE9       30.09R WCI  23
ST GEORGE      MOCLDY    45  30  57 NE9       30.03R
HANKSVILLE     CLOUDY    37  36  93 MISG      29.97S
KANAB          MOCLDY    43  36  75 CALM      30.01R
BLANDING       CLOUDY    37  37 100 CALM      29.98R

$$

REGIONAL REPORTS     COLORADO/ARIZONA

CITY           SKY/WX    TMP DP  RH WIND       PRES   REMARKS
CRAIG, CO      CLOUDY    20  14  77 NE6       30.01S WCI  12
GRAND JUNCTION CLOUDY    40  34  79 NE5       29.93R
RIFLE, CO      CLOUDY    33  27  78 NW7       29.95R WCI  27
MONTROSE, CO   CLOUDY    37  34  89 N3        29.94S
CORTEZ, CO     CLOUDY    38  38 100 NW9       29.89R FOG     WCI  31
COLORADO CITY    N/A     39  32  75 NW5       30.02R
PAGE, AZ       CLOUDY    46  37  71 CALM      29.94R
GRAND CANYON   CLOUDY    36  34  92 CALM      29.98S
KINGMAN, AZ    MOCLDY    48  32  53 N7        30.00R
FLAGSTAFF, AZ  MOCLDY    35  32  88 CALM      29.98R

$$

REGIONAL REPORTS    NEVADA/IDAHO/WYOMING

CITY           SKY/WX    TMP DP  RH WIND       PRES   REMARKS
LAS VEGAS, NV  PTCLDY    56  28  34 CALM      29.98S
ELY, NY        CLOUDY    26  22  84 N7        30.09R WCI  18
ELKO, NV       CLOUDY    25  20  81 NW5       30.16R WCI  19
POCATELLO, ID  CLOUDY     8   4  83 W8        30.21R WCI  -4
BURLEY, ID     CLOUDY    14   9  80 NW6       30.22R WCI   5
FORT BRIDGER,    N/A      6   4  89 SW7       30.06S WCI  -6
EVANSTON, WY   CLOUDY     8   2  76 CALM      30.03S
ROCK SPRINGS,  CLOUDY     4   1  88 W10       30.03R WCI -11

$$




USA.gov is the U.S. government's official web portal to all federal, state and local government web resources and services.